Powrót do katalogu

STARLINK-34412

AktywnyŁącznośćVLEO
NORAD 66132·PAYLOAD·🇺🇸 United States

Wystrzelony Oct 22, 2025 z Vandenberg Space Force Base

Loading…

Następne Przeloty (najbliższe 24 godziny)

TLE

ŚwieżeSource: CelesTrak SupGP

Epoka: Sep 14, 2026, 14:49 UTC

1 66132C 25237U   26257.61784722 -.00028863  00000+0 -85305-3 0  2575
2 66132  53.1569 239.1451 0001400  90.2948  50.4864 15.34394725    12

Śledź STARLINK-34412 w czasie rzeczywistym z AllMySat

Download on the App Store